Weather History for West Plains, MO

Change the Weather History Date:

Saturday, July 13, 2013

  Actual Average Record
Temperature  
Mean Temperature 71 °F 78 °F  
Max Temperature 88 °F 89 °F 105 °F (1954)
Min Temperature 54 °F 67 °F 51 °F (1964)
Degree Days  
Heating Degree Days 0 0  
Month to date heating degree days 0 0  
Since 1 June heating degree days 9 5  
Since 1 July heating degree days 0 0  
Cooling Degree Days 6 13  
Month to date cooling degree days 116 165  
Year to date cooling degree days 376 553  
Since 1 June cooling degree days 264 431  
Growing Degree Days 20 (Base 50)    
Moisture  
Dew Point 56 °F    
Average Humidity 63    
Maximum Humidity 93    
Minimum Humidity 32    
Precipitation  
Precipitation 0.00 in 0.14 in 3.10 in (1956)
Month to date precipitation 0.00 1.56  
Year to date precipitation 25.49 24.85  
Sea Level Pressure  
Sea Level Pressure 30.04 in    
Wind  
Wind Speed 2 mph (ENE)    
Max Wind Speed 14 mph    
Max Gust Speed 21 mph    
Visibility 10 miles    
Events      
T = Trace of Precipitation, MM = Missing Value Source: NWS Daily Summary

Daily Weather History Graph

Daily Weather History Graph

Search for Another Location

Airport:

Trip Planner

Search our weather history database for the weather conditions in past years. The results will help you decide how hot, cold, wet, or windy it might be!

Date:

Astronomy

Jul. 13, 2013 Rise Set
Actual Time 5:58 AM CDT 8:27 PM CDT
Civil Twilight 5:28 AM CDT 8:57 PM CDT
Nautical Twilight 4:51 AM CDT 9:34 PM CDT
Astronomical Twilight 4:10 AM CDT 10:15 PM CDT
Moon 11:06 AM CDT (7/13) 11:18 PM CDT (7/13)
Length of Visible Light 15h 28m
Length of Day
14h 28m
Waxing Crescent, 26% of the Moon is Illuminated
Jul 13
Waxing Crescent
Jul 15
First Quarter
Jul 22
Full
Jul 29
Last Quarter
Aug 6
New

Hourly Weather History & Observations

Time (CDT) Temp. Heat Index Dew Point Humidity Pressure Visibility Wind Dir Wind Speed Gust Speed Precip Events Conditions
12:53 AM 61.0 °F - 55.0 °F 81% 30.06 in 10.0 mi Calm Calm - N/A   Clear
1:53 AM 57.0 °F - 54.0 °F 89% 30.06 in 10.0 mi Calm Calm - N/A   Clear
2:53 AM 55.9 °F - 53.1 °F 90% 30.06 in 10.0 mi Calm Calm - N/A   Clear
3:53 AM 55.9 °F - 53.1 °F 90% 30.06 in 10.0 mi ENE 3.5 mph - N/A   Clear
4:53 AM 57.0 °F - 54.0 °F 89% 30.05 in 10.0 mi Calm Calm - N/A   Clear
5:53 AM 55.9 °F - 52.0 °F 87% 30.06 in 10.0 mi Calm Calm - N/A   Clear
6:53 AM 59.0 °F - 55.9 °F 90% 30.06 in 10.0 mi Calm Calm - N/A   Clear
7:53 AM 66.9 °F - 57.9 °F 73% 30.07 in 10.0 mi Calm Calm - N/A   Clear
8:53 AM 72.0 °F - 59.0 °F 64% 30.08 in 10.0 mi Calm Calm - N/A   Clear
9:53 AM 75.9 °F - 55.9 °F 50% 30.08 in 10.0 mi Variable 3.5 mph - N/A   Clear
10:53 AM 78.1 °F - 55.0 °F 45% 30.09 in 10.0 mi Variable 4.6 mph - N/A   Clear
11:53 AM 80.1 °F 80.1 °F 55.0 °F 42% 30.07 in 10.0 mi East 4.6 mph - N/A   Clear
12:53 PM 82.0 °F 81.4 °F 55.0 °F 39% 30.05 in 10.0 mi Variable 5.8 mph - N/A   Clear
1:53 PM 84.9 °F - 51.1 °F 31% 30.04 in 10.0 mi Variable 3.5 mph - N/A   Clear
2:53 PM 84.9 °F - 52.0 °F 32% 30.02 in 10.0 mi East 5.8 mph - N/A   Clear
3:53 PM 84.0 °F 82.6 °F 54.0 °F 35% 30.02 in 10.0 mi NNE 9.2 mph - N/A   Clear
4:53 PM 84.9 °F 83.6 °F 55.0 °F 36% 30.01 in 10.0 mi NE 3.5 mph - N/A   Clear
5:53 PM 82.0 °F 81.7 °F 57.0 °F 42% 30.01 in 10.0 mi ENE 5.8 mph - N/A   Clear
6:53 PM 80.1 °F 81.1 °F 61.0 °F 52% 30.00 in 10.0 mi Calm Calm - N/A   Clear
7:53 PM 75.9 °F - 64.0 °F 67% 30.00 in 10.0 mi East 4.6 mph - N/A   Scattered Clouds
8:53 PM 73.0 °F - 57.9 °F 59% 30.00 in 10.0 mi Calm Calm - N/A   Clear
9:53 PM 69.1 °F - 59.0 °F 70% 30.01 in 10.0 mi Calm Calm - N/A   Partly Cloudy
10:53 PM 63.0 °F - 57.9 °F 84% 30.04 in 10.0 mi NNE 3.5 mph - N/A   Partly Cloudy
11:53 PM 64.0 °F - 59.0 °F 84% 30.05 in 10.0 mi Calm Calm - N/A   Clear